[[{"header":{"parameterUnit":"m.s-1","parameterCategory":1,"la1":30.2991,"la2":30.254,"lo1":-89.0895,"lo2":-89.0444,"dy":0.0017,"dx":0.0017,"nx":28,"ny":28,"refTime":"2023-04-30T15:00:00:Z","depth":0,"parameterNumber":2,"parameterNumberName":"U-component_of_WINDS"},"data":[0,0,0,0,0,0,0,0,0,0,0,0,0,0,0,0,0,0,0,0,0,0,0,0,0,0,0,0,0,0,0,0,0,0,0,0,0,0,0,0,0,0,0,0,0,0,0,0,0,0,0,0,0,0,0,0,0,0,-0.7905,-0.7906,0,-0.7927,-0.7927,-0.7927,-0.7944,-0.7944,-0.7944,-0.7944,-0.7964,-0.7964,-0.7964,0,0,0,0,0,0,0,0,0,0,0,0,0,-0.7875,-0.7875,-0.7905,-0.7906,-0.7906,-0.7927,-0.7927,-0.7927,-0.7944,-0.7944,-0.7944,-0.7944,-0.7964,-0.7964,-0.7964,0,0,0,0,0,0,0,0,0,0,0,0,0,-0.7891,-0.7875,-0.7905,-0.7917,-0.7918,-0.7927,-0.7927,-0.7927,-0.7944,-0.7944,-0.7944,-0.7944,-0.7963,-0.7964,-0.7964,-0.7963,0,0,-0.7966,-0.7966,0,0,0,0,0,0,0,0,-0.789,-0.7892,-0.7915,-0.7916,-0.7917,-0.7933,-0.7923,-0.7939,-0.7943,-0.7934,-0.7944,-0.7944,-0.7953,-0.7954,-0.7958,-0.7964,-0.7965,-0.7966,-0.7967,-0.7967,-0.7967,0,0,0,0,0,0,0,-0.7889,-0.7891,-0.7914,-0.7915,-0.7917,-0.7919,-0.7922,-0.7926,-0.7942,-0.7935,-0.7936,-0.7938,-0.7954,-0.7957,-0.7958,-0.7965,-0.7966,-0.7967,-0.7967,-0.7967,-0.7968,-0.7967,0,0,0,0,0,0,-0.7887,-0.789,-0.7913,-0.7914,-0.7904,-0.792,-0.7923,-0.7928,-0.7942,-0.7944,-0.7938,-0.7939,-0.7956,-0.7958,-0.7959,-0.7956,-0.7967,-0.7967,-0.7968,-0.7968,-0.7967,-0.7967,0,0,0,0,0,0,-0.7886,-0.7888,-0.7912,-0.7903,-0.7906,-0.792,-0.7925,-0.7928,-0.7931,-0.7944,-0.7947,-0.7939,-0.7956,-0.7958,-0.7961,-0.7957,-0.7968,-0.7968,-0.7968,-0.7968,-0.7967,-0.7952,0,0,0,0,0,0,-0.7885,-0.7888,-0.7889,-0.7903,-0.7906,-0.7915,-0.7925,-0.7928,-0.7933,-0.7934,-0.7946,-0.7948,-0.7957,-0.796,-0.7962,-0.7958,-0.7969,-0.7969,-0.7968,-0.7967,-0.7953,-0.7951,-0.7949,0,0,0,0,0,-0.7884,-0.7884,-0.7889,-0.7892,-0.7908,-0.7915,-0.7917,-0.7928,-0.7932,-0.7932,-0.794,-0.7948,-0.7958,-0.7961,-0.7962,-0.7959,-0.7969,-0.7968,-0.7967,-0.7954,-0.7951,-0.7949,0,0,0,0,0,0,-0.787,-0.7886,-0.7892,-0.7897,-0.7904,-0.7918,-0.7919,-0.7926,-0.7932,-0.7933,-0.7945,-0.7947,-0.7948,-0.7954,-0.7957,-0.7956,-0.7964,-0.7964,-0.7953,-0.7951,-0.7949,-0.7947,-0.7969,0,0,0,0,0,-0.7867,-0.7873,-0.7887,-0.789,-0.7893,-0.7905,-0.7909,-0.7916,-0.7924,-0.7927,-0.7935,-0.7942,-0.7946,-0.7949,-0.7954,-0.7954,-0.7955,-0.7952,-0.795,-0.7949,-0.7948,-0.7945,-0.7943,-0.7965,-0.7965,-0.7965,0,0,-0.7862,-0.7872,-0.7875,-0.7887,-0.7894,-0.7897,-0.7908,-0.7912,-0.7915,-0.7928,-0.7931,-0.7936,-0.7944,-0.7945,-0.7946,-0.795,-0.7942,-0.7948,-0.7946,-0.7946,-0.7944,-0.7942,-0.794,-0.7964,-0.7964,-0.7964,0,0,-0.7855,-0.7864,-0.7866,-0.7872,-0.7882,-0.7889,-0.789,-0.7901,-0.7906,-0.7909,-0.7918,-0.792,-0.7928,-0.7933,-0.7936,-0.7926,-0.7933,-0.7927,-0.7918,-0.7915,-0.7914,-0.7912,-0.7906,-0.7904,-0.7927,-0.7927,-0.7927,0,-0.7847,-0.7855,-0.7866,-0.7869,-0.7873,-0.7885,-0.7886,-0.7891,-0.7901,-0.7903,-0.7907,-0.7915,-0.7922,-0.7922,-0.7919,-0.7923,-0.7921,-0.7926,-0.7913,-0.7912,-0.791,-0.7905,-0.7903,-0.7926,-0.7926,-0.7926,-0.7926,0,-0.7844,-0.7848,-0.7849,-0.7858,-0.7862,-0.7864,-0.7874,-0.7876,-0.7882,-0.7888,-0.7889,-0.7897,-0.7902,-0.7903,-0.7909,-0.7903,-0.7905,-0.7911,-0.7919,-0.7907,-0.7902,-0.7901,-0.7925,-0.7925,-0.7925,-0.7926,0,0,-0.783,-0.7844,-0.7844,-0.7847,-0.7857,-0.786,-0.7861,-0.7866,-0.7867,-0.7873,-0.7873,-0.7877,-0.7882,-0.7886,-0.7892,-0.789,-0.7878,-0.7896,-0.7896,-0.7891,-0.7869,-0.7863,-0.7861,-0.7883,-0.7882,-0.7882,-0.7867,0,-0.7823,-0.7827,-0.7836,-0.7836,-0.7839,-0.7848,-0.7849,-0.7854,-0.7859,-0.786,-0.7866,-0.7868,-0.7875,-0.7877,-0.7875,-0.788,-0.7874,-0.7882,-0.788,-0.788,-0.7877,-0.7859,-0.7854,-0.784,-0.7866,-0.7865,-0.7865,0,-0.7817,-0.7822,-0.7822,-0.7829,-0.783,-0.7831,-0.7835,-0.7837,-0.7841,-0.7845,-0.7847,-0.7854,-0.7853,-0.786,-0.7858,-0.7863,-0.7862,-0.7864,-0.7864,-0.7864,-0.7872,-0.7856,-0.7836,-0.7833,-0.7863,-0.7863,-0.7863,0,-0.7805,-0.7811,-0.7811,-0.7814,-0.7823,-0.7822,-0.7826,-0.7831,-0.7832,-0.7835,-0.7835,-0.7838,-0.7839,-0.7839,-0.7845,-0.785,-0.7841,-0.7849,-0.7842,-0.7841,-0.7839,-0.7839,-0.7817,-0.7841,-0.7841,-0.7841,-0.7841,0,-0.7796,-0.7795,-0.7806,-0.7806,-0.7804,-0.7813,-0.7811,-0.7815,-0.7818,-0.7818,-0.7826,-0.7825,-0.7833,-0.7832,-0.7837,-0.7832,-0.7833,-0.7834,-0.7835,-0.7833,-0.7833,-0.7833,-0.7833,-0.7841,-0.7841,-0.7841,-0.7841,0,-0.7783,-0.779,-0.779,-0.7798,-0.7799,-0.7797,-0.7803,-0.7802,-0.7806,-0.7805,-0.7805,-0.7812,-0.7811,-0.7817,-0.7817,-0.782,-0.7813,-0.7816,-0.7811,-0.7812,-0.7803,-0.7803,-0.7779,-0.7775,-0.7803,-0.7803,-0.7803,0,-0.7777,-0.7776,-0.7782,-0.7783,-0.7785,-0.7786,-0.7787,-0.7794,-0.7794,-0.7797,-0.7795,-0.7795,-0.7795,-0.7793,-0.7797,-0.7796,-0.7798,-0.779,-0.7798,-0.7795,-0.7796,-0.7795,-0.7794,-0.7788,-0.7787,-0.7787,-0.7787,0,-0.7764,-0.7766,-0.7768,-0.7769,-0.777,-0.7772,-0.7774,-0.7773,-0.778,-0.778,-0.7779,-0.7779,-0.7778,-0.7776,-0.7776,-0.7777,-0.7782,-0.7784,-0.7782,-0.7779,-0.7775,-0.7775,-0.7805,-0.7785,-0.7785,-0.7785,-0.7785,-0.7785,-0.7753,-0.7752,-0.7755,-0.7755,-0.7757,-0.7758,-0.7756,-0.776,-0.7759,-0.7759,-0.7763,-0.776,-0.7761,-0.7761,-0.7761,-0.7758,-0.7762,-0.7759,-0.7759,-0.7757,-0.7755,-0.7776,-0.7758,-0.7758,-0.7758,-0.7758,-0.7758,0,-0.7739,-0.7741,-0.7741,-0.7743,-0.7742,-0.7747,-0.7748,-0.7747,-0.7744,-0.7745,-0.7744,-0.7741,-0.7739,-0.7741,-0.7739,-0.7735,-0.7737,-0.7734,-0.7734,-0.7733,-0.7753,-0.7754,-0.7732,-0.7732,-0.7732,-0.7732,-0.7732,-0.7732,-0.7732,-0.7729,-0.7731,-0.7728,-0.773,-0.7727,-0.7727,-0.7727,-0.7727,-0.7723,-0.7721,-0.7723,-0.7723,-0.772,-0.7717,-0.7717,-0.7715,-0.7711,-0.7712,-0.773,-0.7732,-0.7735,-0.7736,-0.7711,-0.7711,-0.7692,-0.7692,-0.7692]},{"header":{"parameterUnit":"m.s-1","parameterCategory":1,"la1":30.2991,"la2":30.254,"lo1":-89.0895,"lo2":-89.0444,"dy":0.0017,"dx":0.0017,"nx":28,"ny":28,"refTime":"2023-04-30T15:00:00:Z","depth":0,"parameterNumber":3,"parameterNumberName":"V-component_of_WINDS"},"data":[0,0,0,0,0,0,0,0,0,0,0,0,0,0,0,0,0,0,0,0,0,0,0,0,0,0,0,0,0,0,0,0,0,0,0,0,0,0,0,0,0,0,0,0,0,0,0,0,0,0,0,0,0,0,0,0,0,0,-2.2632,-2.2632,0,-2.2705,-2.2705,-2.2706,-2.2744,-2.2744,-2.2744,-2.2744,-2.2814,-2.2816,-2.2817,0,0,0,0,0,0,0,0,0,0,0,0,0,-2.2518,-2.252,-2.2631,-2.2632,-2.2633,-2.2704,-2.2705,-2.2706,-2.2744,-2.2744,-2.2744,-2.2744,-2.2813,-2.2815,-2.2818,0,0,0,0,0,0,0,0,0,0,0,0,0,-2.2577,-2.2521,-2.2631,-2.2661,-2.2664,-2.2704,-2.2705,-2.2707,-2.2744,-2.2744,-2.2744,-2.2744,-2.2813,-2.2815,-2.2818,-2.2833,0,0,-2.2826,-2.2827,0,0,0,0,0,0,0,0,-2.2573,-2.2581,-2.2656,-2.2659,-2.2663,-2.2715,-2.2691,-2.2749,-2.2744,-2.2713,-2.2744,-2.2744,-2.2781,-2.2786,-2.2799,-2.2836,-2.2839,-2.2826,-2.2828,-2.2829,-2.283,0,0,0,0,0,0,0,-2.2569,-2.2578,-2.266,-2.2657,-2.2661,-2.2668,-2.2677,-2.2702,-2.2745,-2.2716,-2.2719,-2.2727,-2.2783,-2.2797,-2.2801,-2.284,-2.2826,-2.2829,-2.283,-2.2831,-2.289,-2.289,0,0,0,0,0,0,-2.2561,-2.2574,-2.2658,-2.2662,-2.2618,-2.267,-2.268,-2.2698,-2.2745,-2.2753,-2.2727,-2.2729,-2.2792,-2.2798,-2.2804,-2.2823,-2.2829,-2.2832,-2.2833,-2.289,-2.289,-2.289,0,0,0,0,0,0,-2.2559,-2.2569,-2.2655,-2.2619,-2.2631,-2.2672,-2.2693,-2.27,-2.2714,-2.2754,-2.2761,-2.2734,-2.2792,-2.28,-2.2825,-2.2826,-2.2833,-2.2835,-2.289,-2.289,-2.289,-2.2863,0,0,0,0,0,0,-2.2555,-2.2567,-2.2575,-2.2619,-2.2633,-2.2677,-2.2693,-2.2701,-2.2719,-2.2722,-2.2762,-2.2769,-2.2793,-2.2821,-2.2828,-2.283,-2.2838,-2.289,-2.289,-2.289,-2.2864,-2.2862,-2.286,0,0,0,0,0,-2.2551,-2.2564,-2.2575,-2.2585,-2.2644,-2.2677,-2.2684,-2.2713,-2.2719,-2.2726,-2.2751,-2.2768,-2.2825,-2.2823,-2.2831,-2.2834,-2.289,-2.289,-2.289,-2.2865,-2.2862,-2.286,0,0,0,0,0,0,-2.2518,-2.257,-2.2584,-2.2611,-2.264,-2.2683,-2.2693,-2.271,-2.2736,-2.2738,-2.277,-2.2779,-2.2801,-2.282,-2.2817,-2.285,-2.2859,-2.2861,-2.2837,-2.2835,-2.2833,-2.2828,-2.284,0,0,0,0,0,-2.2514,-2.2538,-2.2582,-2.2602,-2.2616,-2.2652,-2.2668,-2.2687,-2.2717,-2.2729,-2.2756,-2.2783,-2.2807,-2.2822,-2.2846,-2.2867,-2.2875,-2.2872,-2.2871,-2.2869,-2.287,-2.288,-2.2879,-2.289,-2.289,-2.289,0,0,-2.2505,-2.2537,-2.2551,-2.2596,-2.2621,-2.2643,-2.2662,-2.2686,-2.2702,-2.2732,-2.2758,-2.2778,-2.281,-2.2833,-2.2844,-2.2849,-2.2868,-2.2869,-2.2867,-2.2869,-2.288,-2.2879,-2.2878,-2.289,-2.289,-2.289,0,0,-2.2502,-2.2529,-2.2549,-2.2572,-2.2609,-2.2632,-2.2637,-2.2678,-2.2693,-2.272,-2.2742,-2.2761,-2.2802,-2.2823,-2.2839,-2.2842,-2.2857,-2.2848,-2.2839,-2.2848,-2.2848,-2.2847,-2.2847,-2.2846,-2.2849,-2.2849,-2.2849,0,-2.2487,-2.2524,-2.2556,-2.2578,-2.2596,-2.2625,-2.2644,-2.2664,-2.2706,-2.2717,-2.2723,-2.2774,-2.2798,-2.2825,-2.2825,-2.2838,-2.2842,-2.2844,-2.2845,-2.2845,-2.2845,-2.2845,-2.2845,-2.2848,-2.2848,-2.2848,-2.2848,0,-2.2503,-2.2528,-2.2538,-2.258,-2.2599,-2.2619,-2.2651,-2.2667,-2.2684,-2.2706,-2.2731,-2.276,-2.279,-2.2798,-2.2815,-2.2827,-2.2829,-2.284,-2.2849,-2.2842,-2.2843,-2.2843,-2.2846,-2.2846,-2.2847,-2.2847,0,0,-2.2482,-2.2539,-2.2543,-2.2561,-2.2602,-2.2621,-2.2641,-2.2672,-2.2684,-2.2711,-2.2727,-2.276,-2.277,-2.2788,-2.2807,-2.2816,-2.2814,-2.2825,-2.2826,-2.2821,-2.2827,-2.2818,-2.2818,-2.2824,-2.2824,-2.2824,-2.2824,0,-2.2484,-2.2524,-2.2552,-2.258,-2.2602,-2.2628,-2.2645,-2.2671,-2.2692,-2.2712,-2.2734,-2.2757,-2.2768,-2.2779,-2.2789,-2.2812,-2.2815,-2.2812,-2.2838,-2.2838,-2.2829,-2.2818,-2.281,-2.2808,-2.2824,-2.2824,-2.2824,0,-2.2493,-2.252,-2.255,-2.2588,-2.2598,-2.2613,-2.2643,-2.2662,-2.2691,-2.2705,-2.2724,-2.2744,-2.2763,-2.2771,-2.2797,-2.2795,-2.2807,-2.2819,-2.282,-2.2823,-2.2831,-2.2821,-2.2809,-2.2808,-2.2825,-2.2825,-2.2825,0,-2.2474,-2.2518,-2.2541,-2.2556,-2.26,-2.261,-2.2629,-2.2658,-2.2674,-2.2698,-2.2708,-2.2734,-2.2748,-2.2767,-2.2792,-2.2795,-2.2815,-2.2825,-2.2826,-2.2825,-2.2829,-2.2828,-2.2818,-2.2837,-2.2837,-2.2837,-2.2837,0,-2.2473,-2.2491,-2.2533,-2.2548,-2.2567,-2.2597,-2.2614,-2.2635,-2.266,-2.2677,-2.2701,-2.2716,-2.2748,-2.2766,-2.2785,-2.2803,-2.281,-2.282,-2.2825,-2.2818,-2.2817,-2.2826,-2.2827,-2.2837,-2.2837,-2.2837,-2.2837,0,-2.2456,-2.2485,-2.2512,-2.2552,-2.2562,-2.2574,-2.2607,-2.2621,-2.2642,-2.2663,-2.2669,-2.2702,-2.2724,-2.2751,-2.2782,-2.2795,-2.2811,-2.2818,-2.2801,-2.2804,-2.2803,-2.2803,-2.2798,-2.2799,-2.2817,-2.2817,-2.2817,0,-2.2454,-2.2468,-2.2509,-2.2522,-2.2541,-2.2563,-2.2579,-2.2608,-2.2623,-2.2656,-2.2665,-2.269,-2.2711,-2.2745,-2.277,-2.2793,-2.2801,-2.2798,-2.2805,-2.2797,-2.28,-2.2799,-2.28,-2.2796,-2.2796,-2.2796,-2.2795,0,-2.2447,-2.246,-2.2484,-2.2512,-2.2531,-2.2554,-2.2577,-2.2587,-2.262,-2.2636,-2.266,-2.2676,-2.2708,-2.2731,-2.2757,-2.2774,-2.2789,-2.2793,-2.2794,-2.2787,-2.2777,-2.2781,-2.2796,-2.2793,-2.2793,-2.2793,-2.2794,-2.2794,-2.2437,-2.245,-2.248,-2.2505,-2.2526,-2.2547,-2.2561,-2.2584,-2.2605,-2.2634,-2.2649,-2.2672,-2.2697,-2.2734,-2.275,-2.2767,-2.2773,-2.2775,-2.2775,-2.2775,-2.2773,-2.2774,-2.2772,-2.2772,-2.2772,-2.2772,-2.2772,0,-2.243,-2.2451,-2.2473,-2.2506,-2.2524,-2.2539,-2.2565,-2.2579,-2.2599,-2.2623,-2.2643,-2.2669,-2.2691,-2.2717,-2.2741,-2.2749,-2.2757,-2.2754,-2.2754,-2.2757,-2.2767,-2.2763,-2.2747,-2.2747,-2.2747,-2.2747,-2.2747,-2.2747,-2.2429,-2.2452,-2.2468,-2.25,-2.2519,-2.2543,-2.2557,-2.2575,-2.2594,-2.2623,-2.2642,-2.2659,-2.2683,-2.2707,-2.2727,-2.2734,-2.2741,-2.2736,-2.2745,-2.2754,-2.2756,-2.2758,-2.2755,-2.2738,-2.2738,-2.2734,-2.2734,-2.2734]}]]